ARG1553 SACO-SABE

Flight info

Callsign ARG1553
Flight time 1h 21m
Altitude 35000
Route UTRAX1G UTRAX UW24 SNT SNT9R
Aircraft B738/M-SDE2E3FGHIRWXY/LB1

Departure

Time 2026-05-07 15:03
Airport Ingeniero Aeronáutico Ambrosio L.V. Taravella International Airport (SACO)

Arrival

Time 2026-05-07 16:24
Airport Aeroparque Jorge Newbery (SABE)
Time Latitude Longitude Altitude Speed Heading
2026-05-07 14:02 -31.31552 -64.21168 1612 ft 0 kts 259°
2026-05-07 14:52 -31.31549 -64.21154 1620 ft 4 kts 262°
2026-05-07 14:52 -31.31547 -64.21122 1612 ft 4 kts 274°
2026-05-07 14:53 -31.31553 -64.21093 1612 ft 4 kts 304°
2026-05-07 14:53 -31.31568 -64.21081 1612 ft 1 kts
2026-05-07 14:57 -31.31559 -64.21081 1619 ft 5 kts
2026-05-07 14:57 -31.31504 -64.21066 1612 ft 10 kts 30°
2026-05-07 14:57 -31.31468 -64.21003 1612 ft 9 kts 78°
2026-05-07 14:57 -31.31466 -64.20928 1619 ft 9 kts 89°
2026-05-07 14:58 -31.31455 -64.20857 1617 ft 9 kts 55°
2026-05-07 14:58 -31.31402 -64.20827 1620 ft 9 kts
2026-05-07 14:58 -31.31342 -64.20830 1619 ft 9 kts 359°
2026-05-07 14:58 -31.31261 -64.20831 1619 ft 16 kts 359°
2026-05-07 14:59 -31.31133 -64.20833 1616 ft 19 kts 360°
2026-05-07 14:59 -31.31002 -64.20835 1618 ft 20 kts 359°
2026-05-07 14:59 -31.30845 -64.20838 1615 ft 25 kts 359°
2026-05-07 14:59 -31.30680 -64.20841 1612 ft 23 kts 359°
2026-05-07 15:00 -31.30522 -64.20842 1616 ft 22 kts 359°
2026-05-07 15:00 -31.30368 -64.20845 1614 ft 22 kts 359°
2026-05-07 15:00 -31.30219 -64.20847 1620 ft 21 kts 359°
2026-05-07 15:00 -31.30074 -64.20849 1621 ft 20 kts 359°
2026-05-07 15:01 -31.29936 -64.20851 1618 ft 20 kts 359°
2026-05-07 15:01 -31.29799 -64.20854 1614 ft 19 kts 359°
2026-05-07 15:01 -31.29681 -64.20868 1614 ft 12 kts 334°
2026-05-07 15:01 -31.29608 -64.20893 1615 ft 10 kts 16°
2026-05-07 15:02 -31.29620 -64.20853 1620 ft 7 kts 185°
2026-05-07 15:02 -31.29669 -64.20856 1611 ft 7 kts 178°
2026-05-07 15:02 -31.29717 -64.20855 1612 ft 7 kts 179°
2026-05-07 15:02 -31.29852 -64.20853 1615 ft 53 kts 179°
2026-05-07 15:03 -31.30510 -64.20843 1619 ft 133 kts 179°
2026-05-07 15:03 -31.31664 -64.20823 1737 ft 188 kts 179°
2026-05-07 15:03 -31.32970 -64.20761 2789 ft 185 kts 170°
2026-05-07 15:03 -31.34081 -64.20094 3902 ft 190 kts 137°
2026-05-07 15:04 -31.35009 -64.18915 4583 ft 202 kts 139°
2026-05-07 15:04 -31.36039 -64.17770 5077 ft 208 kts 144°
2026-05-07 15:04 -31.37141 -64.16641 5655 ft 213 kts 147°
2026-05-07 15:04 -31.38282 -64.15489 6243 ft 220 kts 146°
2026-05-07 15:05 -31.39446 -64.14306 6996 ft 222 kts 147°
2026-05-07 15:05 -31.40612 -64.13115 7686 ft 229 kts 146°
2026-05-07 15:05 -31.41828 -64.11872 8344 ft 235 kts 147°
2026-05-07 15:05 -31.43084 -64.10584 8996 ft 241 kts 146°
2026-05-07 15:06 -31.44348 -64.09288 9639 ft 247 kts 146°
2026-05-07 15:06 -31.45655 -64.07941 10329 ft 253 kts 143°
2026-05-07 15:06 -31.46865 -64.06331 10695 ft 278 kts 131°
2026-05-07 15:06 -31.48014 -64.04375 10882 ft 304 kts 128°
2026-05-07 15:07 -31.49236 -64.02233 11077 ft 328 kts 127°
2026-05-07 15:07 -31.50562 -63.99966 11390 ft 345 kts 128°
2026-05-07 15:07 -31.51955 -63.97633 12002 ft 352 kts 127°
2026-05-07 15:07 -31.53378 -63.95270 12636 ft 359 kts 127°
2026-05-07 15:08 -31.54838 -63.92850 13193 ft 368 kts 127°
2026-05-07 15:08 -31.56328 -63.90380 13832 ft 373 kts 128°
2026-05-07 15:08 -31.57828 -63.87893 14586 ft 374 kts 127°
2026-05-07 15:08 -31.59346 -63.85376 15160 ft 381 kts 126°
2026-05-07 15:09 -31.60894 -63.82807 15673 ft 389 kts 126°
2026-05-07 15:09 -31.62463 -63.80197 16262 ft 394 kts 125°
2026-05-07 15:09 -31.64055 -63.77549 16867 ft 399 kts 124°
2026-05-07 15:09 -31.65666 -63.74868 17403 ft 405 kts 123°
2026-05-07 15:10 -31.67278 -63.72181 17921 ft 410 kts 123°
2026-05-07 15:10 -31.68931 -63.69424 18484 ft 415 kts 122°
2026-05-07 15:10 -31.70601 -63.66637 18997 ft 420 kts 122°
2026-05-07 15:10 -31.72295 -63.63811 19502 ft 425 kts 122°
2026-05-07 15:11 -31.74008 -63.60950 20002 ft 430 kts 122°
2026-05-07 15:11 -31.75735 -63.58064 20511 ft 434 kts 122°
2026-05-07 15:11 -31.77480 -63.55145 20967 ft 439 kts 122°
2026-05-07 15:11 -31.78650 -63.53187 21271 ft 443 kts 122°
2026-05-07 15:12 -31.80428 -63.50208 21748 ft 447 kts 122°
2026-05-07 15:12 -31.82825 -63.46189 22359 ft 452 kts 122°
2026-05-07 15:12 -31.84027 -63.44173 22643 ft 455 kts 122°
2026-05-07 15:12 -31.85854 -63.41107 23059 ft 459 kts 122°
2026-05-07 15:13 -31.87696 -63.38013 23500 ft 463 kts 122°
2026-05-07 15:13 -31.89571 -63.34921 23923 ft 467 kts 123°
2026-05-07 15:13 -31.91561 -63.31871 24286 ft 472 kts 125°
2026-05-07 15:13 -31.93620 -63.28840 24703 ft 475 kts 126°
2026-05-07 15:14 -31.95711 -63.25804 25157 ft 477 kts 126°
2026-05-07 15:14 -31.97778 -63.22799 25591 ft 478 kts 126°
2026-05-07 15:14 -31.99869 -63.19737 25969 ft 481 kts 126°
2026-05-07 15:14 -32.01966 -63.16646 26346 ft 484 kts 125°
2026-05-07 15:15 -32.04068 -63.13526 26636 ft 489 kts 124°
2026-05-07 15:15 -32.06186 -63.10370 26963 ft 492 kts 124°
2026-05-07 15:15 -32.08308 -63.07203 27322 ft 494 kts 124°
2026-05-07 15:15 -32.10444 -63.04011 27675 ft 496 kts 124°
2026-05-07 15:16 -32.12586 -63.00808 27976 ft 499 kts 124°
2026-05-07 15:16 -32.14739 -62.97586 28249 ft 502 kts 124°
2026-05-07 15:16 -32.16911 -62.94332 28538 ft 505 kts 124°
2026-05-07 15:16 -32.19096 -62.91059 28784 ft 509 kts 124°
2026-05-07 15:17 -32.21295 -62.87759 29080 ft 512 kts 124°
2026-05-07 15:17 -32.23503 -62.84447 29368 ft 514 kts 124°
2026-05-07 15:17 -32.25720 -62.81120 29635 ft 517 kts 124°
2026-05-07 15:17 -32.27949 -62.77769 29837 ft 521 kts 124°
2026-05-07 15:18 -32.30194 -62.74391 30070 ft 524 kts 124°
2026-05-07 15:18 -32.32448 -62.70998 30320 ft 526 kts 124°
2026-05-07 15:18 -32.34710 -62.67588 30563 ft 528 kts 124°
2026-05-07 15:18 -32.36977 -62.64169 30861 ft 529 kts 124°
2026-05-07 15:19 -32.39251 -62.60737 31215 ft 528 kts 124°
2026-05-07 15:19 -32.41479 -62.57372 31540 ft 527 kts 124°
2026-05-07 15:19 -32.43737 -62.53956 31874 ft 526 kts 124°
2026-05-07 15:19 -32.45988 -62.50548 32209 ft 525 kts 124°
2026-05-07 15:20 -32.48240 -62.47136 32509 ft 525 kts 124°
2026-05-07 15:20 -32.50484 -62.43730 32747 ft 526 kts 124°
2026-05-07 15:20 -32.52732 -62.40316 33054 ft 525 kts 124°
2026-05-07 15:20 -32.54977 -62.36905 33361 ft 524 kts 124°
2026-05-07 15:21 -32.57222 -62.33490 33611 ft 524 kts 124°
2026-05-07 15:21 -32.59461 -62.30081 33891 ft 523 kts 125°
2026-05-07 15:21 -32.61698 -62.26672 34150 ft 523 kts 124°
2026-05-07 15:21 -32.63935 -62.23258 34373 ft 524 kts 124°
2026-05-07 15:22 -32.66177 -62.19835 34590 ft 525 kts 124°
2026-05-07 15:22 -32.68414 -62.16415 34815 ft 524 kts 124°
2026-05-07 15:22 -32.72708 -62.09368 34879 ft 528 kts 121°
2026-05-07 15:23 -32.76799 -62.02235 34865 ft 524 kts 120°
2026-05-07 15:23 -32.80899 -61.95107 34870 ft 521 kts 120°
2026-05-07 15:24 -32.85007 -61.88023 34880 ft 521 kts 121°
2026-05-07 15:24 -32.89133 -61.80927 34870 ft 521 kts 121°
2026-05-07 15:25 -32.93263 -61.73812 34877 ft 522 kts 120°
2026-05-07 15:25 -32.97397 -61.66663 34863 ft 525 kts 120°
2026-05-07 15:26 -33.01539 -61.59499 34859 ft 526 kts 120°
2026-05-07 15:26 -33.05670 -61.52337 34867 ft 527 kts 120°
2026-05-07 15:27 -33.09826 -61.45117 34864 ft 529 kts 120°
2026-05-07 15:27 -33.13982 -61.37881 34858 ft 529 kts 120°
2026-05-07 15:28 -33.18134 -61.30637 34857 ft 528 kts 120°
2026-05-07 15:28 -33.22282 -61.23384 34852 ft 528 kts 120°
2026-05-07 15:29 -33.26419 -61.16141 34850 ft 527 kts 120°
2026-05-07 15:29 -33.30534 -61.08910 34851 ft 526 kts 120°
2026-05-07 15:30 -33.34622 -61.01671 34850 ft 525 kts 120°
2026-05-07 15:30 -33.38701 -60.94447 34853 ft 523 kts 120°
2026-05-07 15:31 -33.42757 -60.87229 34848 ft 522 kts 120°
2026-05-07 15:31 -33.46791 -60.80028 34481 ft 525 kts 120°
2026-05-07 15:32 -33.48820 -60.76404 34235 ft 522 kts 120°
2026-05-07 15:32 -33.50830 -60.72812 33918 ft 516 kts 119°
2026-05-07 15:32 -33.52824 -60.69246 33525 ft 512 kts 119°
2026-05-07 15:32 -33.54794 -60.65713 33106 ft 508 kts 119°
2026-05-07 15:33 -33.56751 -60.62203 32686 ft 505 kts 119°
2026-05-07 15:33 -33.58697 -60.58712 32275 ft 501 kts 119°
2026-05-07 15:33 -33.60626 -60.55245 31863 ft 498 kts 119°
2026-05-07 15:33 -33.62546 -60.51796 31441 ft 495 kts 119°
2026-05-07 15:34 -33.64450 -60.48368 31028 ft 492 kts 119°
2026-05-07 15:34 -33.66341 -60.44960 30614 ft 489 kts 119°
2026-05-07 15:34 -33.68218 -60.41571 30210 ft 486 kts 118°
2026-05-07 15:34 -33.70085 -60.38198 29770 ft 484 kts 118°
2026-05-07 15:35 -33.71927 -60.34869 29277 ft 483 kts 119°
2026-05-07 15:35 -33.73782 -60.31516 28860 ft 479 kts 119°
2026-05-07 15:35 -33.75615 -60.28197 28432 ft 476 kts 119°
2026-05-07 15:35 -33.77432 -60.24906 27995 ft 468 kts 119°
2026-05-07 15:36 -33.79214 -60.21679 27590 ft 459 kts 119°
2026-05-07 15:36 -33.80969 -60.18490 27202 ft 455 kts 118°
2026-05-07 15:36 -33.82711 -60.15324 26806 ft 453 kts 119°
2026-05-07 15:36 -33.84443 -60.12175 26408 ft 450 kts 119°
2026-05-07 15:37 -33.86177 -60.09058 26017 ft 447 kts 119°
2026-05-07 15:37 -33.87914 -60.05959 25616 ft 445 kts 120°
2026-05-07 15:37 -33.89642 -60.02882 25227 ft 442 kts 120°
2026-05-07 15:37 -33.91361 -59.99818 24835 ft 439 kts 120°
2026-05-07 15:38 -33.93061 -59.96783 24452 ft 436 kts 120°
2026-05-07 15:38 -33.94752 -59.93755 24058 ft 434 kts 120°
2026-05-07 15:38 -33.96430 -59.90745 23676 ft 431 kts 120°
2026-05-07 15:38 -33.98095 -59.87756 23292 ft 428 kts 120°
2026-05-07 15:39 -33.99747 -59.84787 22911 ft 425 kts 120°
2026-05-07 15:39 -34.01368 -59.81872 22533 ft 423 kts 120°
2026-05-07 15:39 -34.02998 -59.78936 22159 ft 420 kts 120°
2026-05-07 15:39 -34.04621 -59.76012 21781 ft 418 kts 120°
2026-05-07 15:40 -34.06230 -59.73108 21404 ft 415 kts 121°
2026-05-07 15:40 -34.07827 -59.70224 21032 ft 413 kts 121°
2026-05-07 15:40 -34.09421 -59.67346 20663 ft 411 kts 121°
2026-05-07 15:40 -34.11002 -59.64489 20285 ft 409 kts 121°
2026-05-07 15:41 -34.12579 -59.61632 19910 ft 407 kts 121°
2026-05-07 15:41 -34.14147 -59.58794 19548 ft 404 kts 121°
2026-05-07 15:41 -34.15702 -59.55981 19178 ft 402 kts 121°
2026-05-07 15:41 -34.17251 -59.53172 18813 ft 400 kts 121°
2026-05-07 15:42 -34.18793 -59.50373 18439 ft 399 kts 122°
2026-05-07 15:42 -34.20323 -59.47593 18079 ft 397 kts 122°
2026-05-07 15:42 -34.21846 -59.44827 17786 ft 393 kts 122°
2026-05-07 15:42 -34.23523 -59.42235 17725 ft 398 kts 138°
2026-05-07 15:43 -34.25816 -59.40430 17726 ft 390 kts 161°
2026-05-07 15:43 -34.28407 -59.39693 17709 ft 377 kts 183°
2026-05-07 15:43 -34.30956 -59.40009 17727 ft 363 kts 203°
2026-05-07 15:43 -34.33225 -59.41224 17713 ft 352 kts 221°
2026-05-07 15:44 -34.35022 -59.43130 17711 ft 339 kts 238°
2026-05-07 15:44 -34.36241 -59.45503 17713 ft 327 kts 255°
2026-05-07 15:44 -34.36832 -59.48106 17715 ft 317 kts 269°
2026-05-07 15:44 -34.36852 -59.50698 17718 ft 310 kts 281°
2026-05-07 15:45 -34.36435 -59.53237 17711 ft 305 kts 292°
2026-05-07 15:45 -34.35494 -59.55507 17730 ft 301 kts 304°
2026-05-07 15:45 -34.34351 -59.57646 17719 ft 302 kts 304°
2026-05-07 15:45 -34.33196 -59.59775 17716 ft 302 kts 304°
2026-05-07 15:46 -34.30556 -59.63666 17727 ft 301 kts 324°
2026-05-07 15:46 -34.28700 -59.64847 17720 ft 304 kts 336°
2026-05-07 15:46 -34.26652 -59.65525 17722 ft 308 kts 347°
2026-05-07 15:47 -34.24488 -59.65623 17728 ft 315 kts
2026-05-07 15:47 -34.22331 -59.65014 17718 ft 324 kts 16°
2026-05-07 15:47 -34.20353 -59.63631 17737 ft 335 kts 33°
2026-05-07 15:47 -34.18748 -59.61526 17732 ft 348 kts 50°
2026-05-07 15:48 -34.17713 -59.58873 17726 ft 361 kts 68°
2026-05-07 15:48 -34.17387 -59.55829 17723 ft 373 kts 88°
2026-05-07 15:48 -34.17825 -59.52717 17727 ft 381 kts 106°
2026-05-07 15:48 -34.19050 -59.49858 17745 ft 385 kts 122°
2026-05-07 15:49 -34.20537 -59.47164 17720 ft 387 kts 122°
2026-05-07 15:49 -34.22031 -59.44454 17723 ft 388 kts 122°
2026-05-07 15:49 -34.23736 -59.41931 17686 ft 390 kts 141°
2026-05-07 15:49 -34.26053 -59.40331 17726 ft 383 kts 165°
2026-05-07 15:50 -34.28644 -59.39792 17715 ft 374 kts 186°
2026-05-07 15:50 -34.31164 -59.40275 17722 ft 362 kts 206°
2026-05-07 15:50 -34.33357 -59.41640 17714 ft 349 kts 225°
2026-05-07 15:50 -34.35025 -59.43670 17721 ft 335 kts 242°
2026-05-07 15:51 -34.36083 -59.46110 17714 ft 323 kts 258°
2026-05-07 15:51 -34.36500 -59.48724 17711 ft 313 kts 274°
2026-05-07 15:51 -34.36379 -59.51328 17716 ft 308 kts 284°
2026-05-07 15:51 -34.35793 -59.53787 17716 ft 302 kts 298°
2026-05-07 15:52 -34.34730 -59.55973 17725 ft 301 kts 304°
2026-05-07 15:52 -34.33580 -59.58097 17718 ft 302 kts 304°
2026-05-07 15:52 -34.32443 -59.60198 17716 ft 303 kts 304°
2026-05-07 15:52 -34.31237 -59.62282 17712 ft 303 kts 313°
2026-05-07 15:53 -34.29592 -59.63861 17732 ft 304 kts 329°
2026-05-07 15:53 -34.27640 -59.64837 17719 ft 306 kts 341°
2026-05-07 15:53 -34.25535 -59.65255 17717 ft 310 kts 354°
2026-05-07 15:53 -34.23370 -59.65056 17720 ft 315 kts
2026-05-07 15:54 -34.21316 -59.64021 17740 ft 327 kts 26°
2026-05-07 15:54 -34.19547 -59.62221 17724 ft 341 kts 43°
2026-05-07 15:54 -34.18276 -59.59754 17615 ft 352 kts 63°
2026-05-07 15:54 -34.17787 -59.56813 17359 ft 366 kts 86°
2026-05-07 15:55 -34.18113 -59.53744 17122 ft 375 kts 104°
2026-05-07 15:55 -34.19197 -59.50857 16903 ft 379 kts 117°
2026-05-07 15:55 -34.20470 -59.48067 16641 ft 379 kts 117°
2026-05-07 15:55 -34.21707 -59.45261 16405 ft 377 kts 116°
2026-05-07 15:56 -34.22981 -59.42497 16141 ft 376 kts 120°
2026-05-07 15:56 -34.24365 -59.39831 15887 ft 374 kts 122°
2026-05-07 15:56 -34.25778 -59.37211 15640 ft 371 kts 122°
2026-05-07 15:56 -34.27189 -59.34604 15386 ft 369 kts 122°
2026-05-07 15:57 -34.28583 -59.32011 15132 ft 366 kts 122°
2026-05-07 15:57 -34.29951 -59.29444 14882 ft 361 kts 122°
2026-05-07 15:57 -34.31297 -59.26904 14639 ft 357 kts 122°
2026-05-07 15:57 -34.32628 -59.24381 14376 ft 354 kts 122°
2026-05-07 15:58 -34.33946 -59.21874 14125 ft 351 kts 122°
2026-05-07 15:58 -34.35251 -59.19386 13876 ft 349 kts 122°
2026-05-07 15:58 -34.36547 -59.16915 13629 ft 347 kts 122°
2026-05-07 15:58 -34.37836 -59.14456 13381 ft 345 kts 122°
2026-05-07 15:59 -34.39117 -59.12007 13130 ft 343 kts 122°
2026-05-07 15:59 -34.40390 -59.09574 12886 ft 341 kts 122°
2026-05-07 15:59 -34.41229 -59.07967 12715 ft 340 kts 122°
2026-05-07 15:59 -34.42896 -59.04774 12380 ft 338 kts 122°
2026-05-07 16:00 -34.44151 -59.02371 12140 ft 337 kts 122°
2026-05-07 16:00 -34.45399 -58.99983 11906 ft 333 kts 122°
2026-05-07 16:00 -34.46634 -58.97616 11591 ft 332 kts 122°
2026-05-07 16:00 -34.47865 -58.95252 11268 ft 331 kts 122°
2026-05-07 16:01 -34.48692 -58.93661 11052 ft 330 kts 122°
2026-05-07 16:01 -34.49916 -58.91308 10721 ft 329 kts 123°
2026-05-07 16:01 -34.51132 -58.88967 10392 ft 327 kts 123°
2026-05-07 16:01 -34.52342 -58.86680 10082 ft 326 kts 124°
2026-05-07 16:02 -34.53558 -58.84392 9921 ft 316 kts 123°
2026-05-07 16:02 -34.54696 -58.82166 9781 ft 304 kts 123°
2026-05-07 16:02 -34.55775 -58.80035 9659 ft 290 kts 123°
2026-05-07 16:02 -34.56727 -58.77887 9486 ft 287 kts 114°
2026-05-07 16:03 -34.57366 -58.75596 9221 ft 287 kts 107°
2026-05-07 16:03 -34.57939 -58.73263 8965 ft 287 kts 109°
2026-05-07 16:03 -34.58540 -58.70951 8672 ft 287 kts 110°
2026-05-07 16:03 -34.59166 -58.68661 8383 ft 286 kts 110°
2026-05-07 16:04 -34.59799 -58.66381 8075 ft 283 kts 110°
2026-05-07 16:04 -34.60412 -58.64108 7764 ft 285 kts 109°
2026-05-07 16:04 -34.60994 -58.61801 7472 ft 286 kts 109°
2026-05-07 16:04 -34.61637 -58.59523 7168 ft 286 kts 110°
2026-05-07 16:05 -34.62268 -58.57238 6865 ft 286 kts 110°
2026-05-07 16:05 -34.62884 -58.54951 6558 ft 281 kts 110°
2026-05-07 16:05 -34.63482 -58.52715 6271 ft 276 kts 110°
2026-05-07 16:05 -34.64072 -58.50500 6003 ft 275 kts 110°
2026-05-07 16:06 -34.64657 -58.48300 5720 ft 270 kts 109°
2026-05-07 16:06 -34.65227 -58.46147 5418 ft 264 kts 110°
2026-05-07 16:06 -34.65775 -58.44080 5334 ft 249 kts 110°
2026-05-07 16:06 -34.66285 -58.42162 5219 ft 236 kts 110°
2026-05-07 16:07 -34.66784 -58.40278 4912 ft 234 kts 110°
2026-05-07 16:07 -34.67282 -58.38401 4597 ft 233 kts 111°
2026-05-07 16:07 -34.67779 -58.36531 4288 ft 232 kts 111°
2026-05-07 16:07 -34.68267 -58.34694 4132 ft 223 kts 111°
2026-05-07 16:08 -34.68722 -58.32961 4031 ft 208 kts 112°
2026-05-07 16:08 -34.69151 -58.31332 3870 ft 199 kts 112°
2026-05-07 16:08 -34.69569 -58.29741 3601 ft 197 kts 112°
2026-05-07 16:08 -34.69991 -58.28156 3320 ft 196 kts 113°
2026-05-07 16:09 -34.70383 -58.26569 3004 ft 199 kts 105°
2026-05-07 16:09 -34.70144 -58.24916 2738 ft 203 kts 56°
2026-05-07 16:09 -34.69052 -58.23965 2580 ft 193 kts 10°
2026-05-07 16:09 -34.67704 -58.23887 2520 ft 196 kts 359°
2026-05-07 16:10 -34.66364 -58.23842 2449 ft 193 kts 354°
2026-05-07 16:10 -34.65211 -58.24462 2442 ft 180 kts 303°
2026-05-07 16:10 -34.64646 -58.25801 2445 ft 177 kts 292°
2026-05-07 16:10 -34.63989 -58.27043 2463 ft 173 kts 301°
2026-05-07 16:11 -34.63349 -58.28198 2453 ft 161 kts 298°
2026-05-07 16:11 -34.62746 -58.29323 2250 ft 155 kts 298°
2026-05-07 16:11 -34.62156 -58.30398 2035 ft 151 kts 300°
2026-05-07 16:11 -34.61566 -58.31463 1827 ft 152 kts 300°
2026-05-07 16:12 -34.60973 -58.32527 1624 ft 152 kts 301°
2026-05-07 16:12 -34.60380 -58.33590 1420 ft 152 kts 301°
2026-05-07 16:12 -34.59791 -58.34647 1265 ft 150 kts 302°
2026-05-07 16:12 -34.59225 -58.35711 1308 ft 151 kts 301°
2026-05-07 16:13 -34.58660 -58.36786 1413 ft 151 kts 301°
2026-05-07 16:13 -34.58063 -58.37912 1645 ft 172 kts 301°
2026-05-07 16:13 -34.57305 -58.39219 1859 ft 200 kts 304°
2026-05-07 16:13 -34.56420 -58.40589 2214 ft 216 kts 304°
2026-05-07 16:14 -34.55540 -58.42097 2636 ft 219 kts 300°
2026-05-07 16:14 -34.54707 -58.43619 2723 ft 214 kts 299°
2026-05-07 16:14 -34.53781 -58.45062 2832 ft 223 kts 318°
2026-05-07 16:14 -34.52293 -58.45657 2932 ft 234 kts 359°
2026-05-07 16:15 -34.50720 -58.45075 2976 ft 243 kts 33°
2026-05-07 16:15 -34.49593 -58.43588 2967 ft 240 kts 66°
2026-05-07 16:15 -34.49319 -58.41669 2967 ft 228 kts 105°
2026-05-07 16:15 -34.49879 -58.39928 2977 ft 222 kts 123°
2026-05-07 16:16 -34.50593 -58.38258 2959 ft 223 kts 122°
2026-05-07 16:16 -34.51322 -58.36595 2970 ft 224 kts 123°
2026-05-07 16:16 -34.52029 -58.34928 2966 ft 225 kts 122°
2026-05-07 16:16 -34.52737 -58.33225 2971 ft 226 kts 122°
2026-05-07 16:17 -34.53447 -58.31520 2969 ft 226 kts 122°
2026-05-07 16:17 -34.54155 -58.29823 2952 ft 225 kts 122°
2026-05-07 16:17 -34.54862 -58.28133 2968 ft 224 kts 122°
2026-05-07 16:17 -34.55568 -58.26448 2955 ft 224 kts 122°
2026-05-07 16:18 -34.56271 -58.24767 2959 ft 224 kts 122°
2026-05-07 16:18 -34.56977 -58.23081 2959 ft 223 kts 122°
2026-05-07 16:18 -34.57678 -58.21405 2948 ft 223 kts 122°
2026-05-07 16:18 -34.58510 -58.19860 2932 ft 212 kts 144°
2026-05-07 16:19 -34.59757 -58.19226 2949 ft 186 kts 179°
2026-05-07 16:19 -34.60985 -58.19388 2933 ft 173 kts 199°
2026-05-07 16:19 -34.62046 -58.20061 2952 ft 173 kts 216°
2026-05-07 16:19 -34.62990 -58.20962 2958 ft 172 kts 218°
2026-05-07 16:20 -34.63906 -58.21864 2948 ft 171 kts 218°
2026-05-07 16:20 -34.64786 -58.22831 2942 ft 171 kts 231°
2026-05-07 16:20 -34.65056 -58.24187 2891 ft 173 kts 279°
2026-05-07 16:20 -34.64554 -58.25525 2778 ft 173 kts 291°
2026-05-07 16:21 -34.64006 -58.26811 2583 ft 169 kts 292°
2026-05-07 16:21 -34.63426 -58.28036 2486 ft 162 kts 297°
2026-05-07 16:21 -34.62836 -58.29155 2268 ft 154 kts 298°
2026-05-07 16:21 -34.62254 -58.30221 2060 ft 150 kts 300°
2026-05-07 16:22 -34.61667 -58.31282 1861 ft 151 kts 300°
2026-05-07 16:22 -34.61078 -58.32342 1659 ft 151 kts 301°
2026-05-07 16:22 -34.60489 -58.33394 1457 ft 151 kts 301°
2026-05-07 16:22 -34.59901 -58.34448 1261 ft 150 kts 302°
2026-05-07 16:23 -34.59314 -58.35498 1067 ft 150 kts 302°
2026-05-07 16:23 -34.58726 -58.36541 898 ft 149 kts 303°
2026-05-07 16:23 -34.58138 -58.37592 667 ft 152 kts 303°
2026-05-07 16:23 -34.57544 -58.38652 428 ft 151 kts 303°
2026-05-07 16:24 -34.56970 -58.39685 240 ft 145 kts 302°
2026-05-07 16:24 -34.56421 -58.40683 48 ft 139 kts 303°
2026-05-07 16:24 -34.55979 -58.41476 26 ft 65 kts 304°
2026-05-07 16:24 -34.55842 -58.41721 25 ft 28 kts 304°
2026-05-07 16:25 -34.55747 -58.41892 26 ft 10 kts 306°
2026-05-07 16:25 -34.55692 -58.41888 25 ft 4 kts 36°
2026-05-07 16:25 -34.55684 -58.41855 25 ft 4 kts 97°
2026-05-07 16:25 -34.55698 -58.41823 28 ft 4 kts 120°
2026-05-07 16:26 -34.55713 -58.41793 25 ft 4 kts 123°
2026-05-07 16:26 -34.55729 -58.41763 29 ft 4 kts 123°
2026-05-07 16:26 -34.55743 -58.41734 25 ft 4 kts 119°
2026-05-07 16:26 -34.55751 -58.41714 25 ft 4 kts 116°
2026-05-07 16:27 -34.55767 -58.41674 26 ft 4 kts 116°
2026-05-07 16:27 -34.55787 -58.41626 29 ft 9 kts 117°
2026-05-07 16:27 -34.55827 -58.41531 29 ft 13 kts 117°
2026-05-07 16:27 -34.55859 -58.41455 26 ft 9 kts 117°
2026-05-07 16:28 -34.55887 -58.41387 26 ft 9 kts 117°
2026-05-07 16:28 -34.55910 -58.41325 29 ft 7 kts 98°
2026-05-07 16:28 -34.55876 -58.41284 30 ft 6 kts 30°
2026-05-07 16:28 -34.55833 -58.41271 30 ft 6 kts 15°
2026-05-07 16:29 -34.55805 -58.41247 30 ft 0 kts 39°